Alpine, TX

12:52 AM CDT on July 22, 2017 (GMT -0500)
Alpine

Weather History for KE38 - June, 2013

Change the Weather History Date:

Friday, June 28, 2013

  Actual Average (KMRF) Record (KMRF)
Temperature  
Mean Temperature 78 °F -  
Max Temperature 95 °F 85 °F 102 °F (1998)
Min Temperature 61 °F 59 °F 55 °F (1997)
Cooling Degree Days 13    
Growing Degree Days 28 (Base 50)    
Moisture  
Dew Point 48 °F    
Average Humidity 38    
Maximum Humidity 72    
Minimum Humidity 16    
Precipitation  
Precipitation 0.00 in - - ()
Sea Level Pressure  
Sea Level Pressure 30.22 in    
Wind  
Wind Speed 7 mph (East)    
Max Wind Speed 17 mph    
Max Gust Speed 26 mph    
Visibility 10 miles    
Events      
Averages and records for this station are not official NWS values.
T = Trace of Precipitation, MM = Missing Value Source: NWS Daily Summary

Daily Weather History Graph

Daily Weather History Graph

Search for Another Location

Airport or City:

Trip Planner

Search our weather history database for the weather conditions in past years. The results will help you decide how hot, cold, wet, or windy it might be!

Date:

Astronomy

Jun. 28, 2013 Rise Set
Actual Time 6:55 AM CDT 9:00 PM CDT
Civil Twilight 6:27 AM CDT 9:28 PM CDT
Nautical Twilight 5:54 AM CDT 10:01 PM CDT
Astronomical Twilight 5:18 AM CDT 10:37 PM CDT
Moon 12:23 AM CDT (6/28) 12:38 PM CDT (6/28)
Length of Visible Light 15h 00m
Length of Day
14h 05m
Waning Gibbous, 66% of the Moon is Illuminated
Jun 28
Waning Gibbous
Jun 29
Last Quarter
Jul 8
New
Jul 15
First Quarter
Jul 22
Full

Hourly Weather History & Observations

Time (CDT) Temp. Dew Point Humidity Pressure Visibility Wind Dir Wind Speed Gust Speed Precip Events Conditions
12:15 AM 76.6 °F 47.7 °F 36% 30.23 in 10.0 mi SSE 4.6 mph - N/A   Clear
12:35 AM 76.3 °F 48.4 °F 37% 30.23 in 10.0 mi ESE 4.6 mph - N/A   Clear
12:55 AM 73.9 °F 49.5 °F 42% 30.24 in 10.0 mi SE 3.5 mph - N/A   Clear
1:35 AM 65.3 °F 48.6 °F 55% 30.23 in 10.0 mi South 5.8 mph - N/A   Clear
1:55 AM 67.1 °F 47.7 °F 50% 30.23 in 10.0 mi WSW 4.6 mph - N/A   Clear
2:15 AM 63.7 °F 47.8 °F 56% 30.23 in 10.0 mi SSW 5.8 mph - N/A   Clear
2:35 AM 63.9 °F 48.6 °F 57% 30.22 in 10.0 mi SSW 6.9 mph - N/A   Clear
2:55 AM 61.7 °F 49.1 °F 63% 30.21 in 10.0 mi WSW 6.9 mph - N/A   Clear
3:15 AM 62.6 °F 48.6 °F 60% 30.21 in 10.0 mi WSW 6.9 mph - N/A   Clear
3:35 AM 62.2 °F 50.7 °F 66% 30.20 in 10.0 mi SSW 6.9 mph - N/A   Clear
3:55 AM 63.3 °F 50.2 °F 62% 30.20 in 10.0 mi West 10.4 mph - N/A   Clear
4:15 AM 63.7 °F 49.1 °F 59% 30.21 in 10.0 mi WSW 5.8 mph - N/A   Clear
4:35 AM 66.2 °F 51.3 °F 59% 30.21 in 10.0 mi North 4.6 mph - N/A   Clear
4:55 AM 65.5 °F 51.6 °F 61% 30.20 in 10.0 mi South 4.6 mph - N/A   Clear
5:15 AM 62.4 °F 48.7 °F 61% 30.21 in 10.0 mi NW 4.6 mph - N/A   Clear
5:35 AM 62.8 °F 50.2 °F 63% 30.22 in 10.0 mi NNW 4.6 mph - N/A   Clear
5:55 AM 61.9 °F 51.6 °F 69% 30.23 in 10.0 mi WNW 6.9 mph - N/A   Clear
6:15 AM 62.8 °F 52.0 °F 68% 30.24 in 10.0 mi West 3.5 mph - N/A   Clear
6:35 AM 63.5 °F 52.5 °F 67% 30.24 in 10.0 mi Calm Calm - N/A   Clear
6:55 AM 61.3 °F 52.3 °F 72% 30.24 in 10.0 mi South 3.5 mph - N/A   Clear
7:55 AM 66.7 °F 54.9 °F 66% 30.24 in 7.0 mi Calm Calm - N/A   Clear
8:15 AM 69.1 °F 55.9 °F 63% 30.25 in 10.0 mi Calm Calm - N/A   Clear
8:35 AM 71.6 °F 56.5 °F 59% 30.25 in 10.0 mi South 5.8 mph - N/A   Clear
8:55 AM 73.8 °F 57.0 °F 56% 30.26 in 10.0 mi South 3.5 mph - N/A   Clear
9:15 AM 75.9 °F 56.3 °F 50% 30.26 in 10.0 mi Calm Calm - N/A   Clear
9:55 AM 79.2 °F 52.3 °F 39% 30.26 in 10.0 mi Calm Calm - N/A   Clear
10:15 AM 81.3 °F 50.7 °F 34% 30.26 in 10.0 mi NE 4.6 mph - N/A   Clear
10:35 AM 82.2 °F 52.0 °F 35% 30.26 in 10.0 mi NE 4.6 mph - N/A   Clear
10:55 AM 85.1 °F 49.5 °F 29% 30.26 in 10.0 mi ENE 4.6 mph - N/A   Clear
11:35 AM 86.7 °F 49.8 °F 28% 30.27 in 10.0 mi ENE 13.8 mph - N/A   Clear
11:55 AM 88.0 °F 49.5 °F 26% 30.27 in 10.0 mi NE 15.0 mph 18.4 mph N/A   Clear
12:15 PM 88.0 °F 47.7 °F 25% 30.27 in 10.0 mi NE 15.0 mph 19.6 mph N/A   Clear
12:35 PM 88.5 °F 47.7 °F 24% 30.27 in 7.0 mi ENE 8.1 mph - N/A   Clear
1:15 PM 90.0 °F 45.7 °F 22% 30.27 in 10.0 mi ENE 12.7 mph 17.3 mph N/A   Clear
1:35 PM 90.9 °F 44.4 °F 20% 30.26 in 10.0 mi NNE 4.6 mph - N/A   Clear
1:55 PM 92.1 °F 44.2 °F 19% 30.25 in 10.0 mi ENE 13.8 mph 19.6 mph N/A   Clear
2:15 PM 92.5 °F 45.0 °F 19% 30.25 in 10.0 mi ENE 9.2 mph 24.2 mph N/A   Clear
2:35 PM 92.5 °F 45.1 °F 19% 30.24 in 10.0 mi NNE 16.1 mph 21.9 mph N/A   Clear
2:55 PM 93.9 °F 42.3 °F 17% 30.22 in 10.0 mi ENE 13.8 mph 24.2 mph N/A   Clear
3:15 PM 94.6 °F 42.8 °F 17% 30.22 in 10.0 mi NE 16.1 mph 26.5 mph N/A   Clear
3:35 PM 93.6 °F 42.4 °F 17% 30.21 in 10.0 mi ENE 8.1 mph 19.6 mph N/A   Clear
3:55 PM 94.3 °F 42.1 °F 16% 30.20 in 10.0 mi East 4.6 mph 9.2 mph N/A   Scattered Clouds
4:15 PM 95.7 °F 42.3 °F 16% 30.19 in 10.0 mi ESE 13.8 mph 21.9 mph N/A   Scattered Clouds
4:35 PM 95.7 °F 42.4 °F 16% 30.19 in 10.0 mi East 11.5 mph 18.4 mph N/A   Scattered Clouds
4:55 PM 93.0 °F 42.6 °F 17% 30.19 in 10.0 mi NNE 15.0 mph 19.6 mph N/A   Scattered Clouds
5:15 PM 93.7 °F 43.0 °F 17% 30.19 in 10.0 mi NNE 17.3 mph 24.2 mph N/A   Clear
5:35 PM 93.0 °F 42.1 °F 17% 30.18 in 10.0 mi NE 13.8 mph 25.3 mph N/A   Clear
5:55 PM 92.3 °F 40.8 °F 17% 30.18 in 10.0 mi NE 16.1 mph 23.0 mph N/A   Clear
6:15 PM 91.2 °F 42.3 °F 18% 30.18 in 10.0 mi ENE 16.1 mph 20.7 mph N/A   Clear
6:35 PM 90.5 °F 43.2 °F 19% 30.18 in 10.0 mi ENE 17.3 mph 23.0 mph N/A   Clear
6:55 PM 90.3 °F 44.8 °F 21% 30.18 in 10.0 mi ENE 13.8 mph - N/A   Clear
7:15 PM 90.3 °F 45.3 °F 21% 30.17 in 10.0 mi NE 12.7 mph - N/A   Clear
7:35 PM 89.6 °F 45.5 °F 22% 30.17 in 10.0 mi NE 12.7 mph - N/A   Clear
7:55 PM 90.0 °F 45.3 °F 21% 30.17 in 10.0 mi ENE 8.1 mph - N/A   Clear
8:15 PM 89.6 °F 45.5 °F 22% 30.17 in 10.0 mi NE 11.5 mph - N/A   Clear
8:35 PM 88.0 °F 45.9 °F 23% 30.17 in 10.0 mi NE 9.2 mph - N/A   Clear
8:55 PM 85.5 °F 46.6 °F 26% 30.18 in 10.0 mi East 4.6 mph - N/A   Clear
9:15 PM 83.8 °F 47.3 °F 28% 30.18 in 10.0 mi SE 3.5 mph - N/A   Clear
9:35 PM 83.7 °F 47.7 °F 28% 30.18 in 10.0 mi SE 5.8 mph - N/A   Clear
9:55 PM 81.3 °F 48.9 °F 32% 30.19 in 10.0 mi SSE 4.6 mph - N/A   Clear
10:15 PM 77.7 °F 49.3 °F 37% 30.19 in 10.0 mi SSW 3.5 mph - N/A   Clear
10:35 PM 75.0 °F 50.0 °F 41% 30.20 in 10.0 mi SW 5.8 mph - N/A   Clear
10:55 PM 75.6 °F 50.4 °F 41% 30.20 in 10.0 mi SSW 5.8 mph - N/A   Clear
11:15 PM 76.3 °F 51.1 °F 41% 30.20 in 10.0 mi South 5.8 mph - N/A   Clear
11:35 PM 76.5 °F 51.3 °F 41% 30.20 in 10.0 mi SSW 6.9 mph - N/A   Clear
11:55 PM 76.5 °F 51.1 °F 41% 30.20 in 10.0 mi SSW 5.8 mph - N/A   Clear